Location: Crescent
(42.8242°N, 73.7329°W)
Time: 18:10:13
(UTC+00:00)

Vanguard 1 - Pass Details

Date: 18 February 2026
Orbit: 653 x 3818 km, 34.2° (Epoch: 5 March)

Event Time Altitude Azimuth Distance (km) Brightness Sun altitude
Rises 19:40:41 0° 227° (SW) 4,345 14.7 25.6°
Reaches altitude 10° 19:43:13 10° 220° (SW) 3,679 14.9 25.3°
Maximum altitude 19:52:40 45° 151° (SSE) 2,818 12.9 24.1°
Drops below altitude 10° 20:09:07 10° 87° (E) 6,247 13.8 21.9°
Sets 20:15:02 0° 83° (E) 7,613 14.1 21.1°
